Location: Bismarck
(46.7731°N, 100.8200°W)
Time: 22:31:17
(UTC-06:00)

ISS - Pass Details

Date: 01 December 2017
Orbit: 403 x 407 km, 51.6° (Epoch: 12 December)

Event Time Altitude Azimuth Distance (km) Brightness Sun altitude
Rises 21:09:15 0° 289° (WNW) 2,331 - -42.3°
Reaches altitude 10° 21:11:27 10° 298° (WNW) 1,469 - -42.7°
Maximum altitude 21:14:31 35° 6° (N) 681 - -43.2°
Drops below altitude 10° 21:17:34 10° 75° (ENE) 1,465 - -43.7°
Sets 21:19:46 0° 84° (E) 2,323 - -44.1°
